Regional Weather Roundup
Issued by NWS

Home | Current Version | Previous Version | Graphics & Text | Print | Product List | Glossary Off
Versions: 1 2 3 4 5 6 7 8 9 10 11 12 13 14 15 16 17 18 19 20 21 22 23 24 25 26 27 28 29 30 31 32 33 34 35 36 37 38 39 40 41 42 43 44 45 46 47 48 49 50

000
ASUS43 KTOP 260659
RWRKS

WEATHER ROUNDUP FOR KANSAS
NATIONAL WEATHER SERVICE GOODLAND KS
200 AM CDT SUN OCT 26 2014

NOTE:  "FAIR" INDICATES FEW OR NO CLOUDS BELOW 12,000 FEET WITH NO
SIGNIFICANT WEATHER AND/OR OBSTRUCTIONS TO VISIBILITY.

KSZ001>006-013>018-027>032-041>047-260800-
NORTHWEST KANSAS

CITY           SKY/WX    TMP DP  RH WIND       PRES   REMARKS
GOODLAND       CLEAR     45  38  76 CALM      29.88F
HAYS           CLEAR     61  50  67 S6        29.88F
HILL CITY      CLEAR     58  49  72 E5        29.86F
RUSSELL        CLEAR     65  54  67 S13       29.87F
$$

KSZ061>065-074>080-084>089-260800-
SOUTHWEST KANSAS

CITY           SKY/WX    TMP DP  RH WIND       PRES   REMARKS
DODGE CITY     CLEAR     63  48  58 S9        29.90F
ELKHART          N/A     61  41  48 S15         N/A
GARDEN CITY    CLEAR     63  48  58 S12       29.88F
GREAT BEND     CLEAR     66  52  59 S12       29.89F
LIBERAL        CLEAR     61  46  59 S13       29.93F
$$

KSZ066>073-081>083-090>101-260800-
SOUTHEAST KANSAS

CITY           SKY/WX    TMP DP  RH WIND       PRES   REMARKS
CHANUTE        CLEAR     63  61  93 SE7       29.96S
COFFEYVILLE    CLEAR     62  60  93 S3        29.95S
HUTCHINSON     CLEAR     63  55  75 SE6       29.91F
NEWTON         CLEAR     64  54  68 S7        29.95S
PARSONS        CLEAR     65  62  90 S3        29.97S
WICHITA INTL   CLEAR     63  56  78 S9        29.93S
WICHITA JABRA  CLEAR     63  57  81 S7        29.93F
WINFIELD       CLEAR     66  57  72 S6        29.96R
$$

KSZ007>012-019>026-033>040-048>060-102>105-260800-
NORTHEAST KANSAS

CITY           SKY/WX    TMP DP  RH WIND       PRES   REMARKS
CONCORDIA      CLEAR     58  56  93 E5        29.90F
EMPORIA        CLEAR     61  60  97 SE9       29.94F
LAWRENCE       CLEAR     59  55  87 E7        29.96F
MANHATTAN      CLEAR     61  57  87 NE3       29.92F
OLATHE IND     CLEAR     62  56  80 E8        29.99S
OLATHE EXE     CLEAR     62  55  77 SE8       29.98F
SALINA         CLEAR     63  58  83 S10       29.89F
TOPEKA BILLARD CLEAR     62  59  90 E6        29.95F
TOPEKA FORBES  CLEAR     63  58  83 E8        29.95F
$$



USA.gov is the U.S. government's official web portal to all federal, state and local government web resources and services.